Location: Unspecified
(32.5099°N, 80.0190°W)
Time: 10:10:53
(UTC-04:00)

CZ-3 Stage 3 - Visible Passes

Search period start: 25 July 2016 00:00
Search period end: 04 August 2016 00:00
Orbit: 464 x 34740 km, 30.5° (Epoch: 23 July)

Date Brightness Start Highest point End Pass type
(mag) Time Alt. Az. Time Alt. Az. Time Alt. Az.
26 Jul 4.5 00:27:45 10° W 00:45:23 46° WSW 00:45:23 46° WSW visible
26 Jul 5.8 12:19:11 10° S 21:03:16 81° S 21:16:08 10° E visible
29 Jul 4.5 00:19:16 10° W 00:37:00 45° WSW 00:37:00 45° WSW visible
29 Jul 5.8 12:10:00 10° S 20:54:51 82° S 21:07:44 10° E visible
01 Aug 4.6 00:10:49 10° W 00:28:38 45° WSW 00:28:38 45° WSW visible
01 Aug 5.8 12:00:48 10° S 20:46:27 82° S 20:59:21 10° E visible
